Flag for Germany Weather past 2 weeks in Freiburg, Baden-Württemberg, Germany

Now
64 °F

Passing clouds.


Feels Like: 64 °F
Forecast: 46 / 72 °F
Wind: 2 mph from Northwest

Location: Freiburg

Current Time: Oct 2, 2014 at 3:47:55 PM

Latest Report: Oct 2, 2014 at 3:00 PM


Visibility: 6 mi

Pressure: 30.32 "Hg

Humidity: 79%

Dew point: 57 °F

Location of FreiburgLocation

Historic Weather in Freiburg — Graph

°F

Freiburg temperature yesterday

Maximum temperature yesterday: 71 °F (at 4:00 PM)
Minimum temperature yesterday: 55 °F (at 6:00 AM)
Average temperature yesterday: 60 °F

Past Weeks' High & Low Weather Summary

 TemperatureHumidityPressure
High77 °F (Sep 29, 3:00 PM)100% (Sep 23, 6:00 AM)30.38 "Hg (Sep 23, 6:00 AM)
Low37 °F (Sep 23, 4:00 AM)45% (Sep 23, 4:00 PM)29.82 "Hg (Sep 17, 4:00 PM)
Average59 °F84%30.15 "Hg
* Reported Sep 17 3:00 PM — Oct 2 2:00 PM, Freiburg, Weather by CustomWeather, © 2014

Note: Actual official high and low records may vary slightly from our data, if they occured in-between our weather recording intervals... More about our weather records

Advertising

Freiburg weather history for previous 24 hours

 ConditionsComfort  
Time TempWeatherWind HumidityBarometerVisibility
2:00 PM
Oct 2
60 °FFog.1 mph88%30.34 "Hg4 mi
1:00 PM59 °FFog.1 mph90%30.36 "Hg4 mi
12:00 PM57 °FFog.2 mph91%30.37 "Hg3 mi
11:00 AM58 °FPassing clouds.2 mph86%30.37 "Hg9 mi
10:00 AM55 °FSunny.1 mph91%30.38 "Hg7 mi
9:00 AM52 °FLow clouds.1 mph100%30.38 "Hg0 mi
8:00 AM48 °FDense fog.1 mph99%30.38 "Hg0 mi
7:00 AM48 °FPassing clouds.1 mph98%30.37 "Hg6 mi
6:00 AM47 °FClear.1 mph98%30.37 "Hg0 mi
5:00 AM49 °FClear.1 mph97%30.37 "Hg6 mi
4:00 AM51 °FClear.1 mph99%30.36 "Hg4 mi
3:00 AM49 °FClear.1 mph97%30.37 "Hg0 mi
2:00 AM52 °FClear.1 mph96%30.36 "Hg9 mi
1:00 AM53 °FClear.1 mph97%30.36 "Hg3 mi
12:00 AM55 °FFog.1 mph98%30.36 "Hg4 mi
10:00 PM
Oct 1
57 °FClear.No wind95%30.35 "Hg5 mi
9:00 PM59 °FPassing clouds.1 mph92%30.33 "Hg6 mi
7:00 PM66 °FSunny.2 mph72%30.29 "Hg14 mi
6:00 PM70 °FScattered clouds.3 mph60%30.28 "Hg17 mi
4:00 PM71 °FScattered clouds.3 mph60%30.28 "Hg22 mi
3:00 PM70 °FPassing clouds.2 mph67%30.29 "Hg18 mi
Weather by CustomWeather, © 2014

See weather overviewHow to use our weather pages